Location: NJAA Observatory
(40.6819°N, 74.8979°W)
Time: 23:52:32
(UTC-04:00)

Iridium 84 - Visible Passes

Search period start: 16 October 2017 00:00
Search period end: 26 October 2017 00:00
Orbit: 776 x 779 km, 86.4° (Epoch: 16 October)

Date Brightness Start Highest point End Pass type
(mag) Time Alt. Az. Time Alt. Az. Time Alt. Az.
16 Oct 7.5 06:13:28 10° NNE 06:18:12 33° E 06:22:53 10° SE visible
16 Oct 5.5 19:09:28 10° S 19:14:38 72° E 19:19:51 10° N visible
16 Oct 8.6 20:53:34 10° W 20:55:56 13° WNW 20:58:17 10° NW visible
17 Oct 8.4 05:40:46 10° NNE 05:44:24 19° ENE 05:48:01 10° ESE visible
17 Oct 6.0 18:36:27 10° SSE 18:41:14 38° E 18:46:03 10° NNE visible
17 Oct 7.9 20:17:55 10° SW 20:22:04 24° WNW 20:26:13 10° NNW visible
18 Oct 5.6 06:46:42 10° N 06:51:57 89° E 06:57:10 10° S visible
18 Oct 6.8 19:43:24 10° SSW 19:48:20 43° W 19:53:18 10° N visible
19 Oct 6.7 06:13:20 10° N 06:18:23 48° E 06:23:24 10° SSE visible
19 Oct 5.7 19:09:31 10° S 19:14:44 80° W 19:19:58 10° N visible
20 Oct 7.8 05:40:18 10° NNE 05:44:41 27° ENE 05:49:03 10° SE visible
20 Oct 5.6 18:36:11 10° SSE 18:41:15 56° E 18:46:22 10° NNE visible
20 Oct 8.4 20:19:05 10° WSW 20:22:21 17° WNW 20:25:38 10° NW visible
21 Oct 8.6 05:07:57 10° NE 05:10:50 15° ENE 05:13:43 10° ESE visible
21 Oct 5.6 06:46:52 10° N 06:52:02 63° W 06:57:10 10° S visible
21 Oct 7.5 19:44:00 10° SW 19:48:32 30° W 19:53:06 10° NNW visible
22 Oct 5.9 06:13:18 10° N 06:18:32 71° E 06:23:43 10° S visible
22 Oct 6.4 19:09:46 10° SSW 19:14:52 54° W 19:19:59 10° N visible
23 Oct 7.1 05:40:03 10° NNE 05:44:54 38° E 05:49:44 10° SSE visible
23 Oct 5.5 18:36:07 10° S 18:41:19 81° E 18:46:33 10° N visible
23 Oct 8.8 20:21:07 10° W 20:22:42 11° WNW 20:24:17 10° NW visible
24 Oct 8.0 05:07:13 10° NNE 05:11:09 21° ENE 05:15:04 10° SE visible
24 Oct 5.9 06:47:08 10° NNW 06:52:04 43° W 06:56:58 10° SSW visible
24 Oct 8.2 19:44:55 10° SW 19:48:48 21° WNW 19:52:43 10° NNW visible
25 Oct 8.7 04:35:34 10° NE 04:37:15 11° ENE 04:38:56 10° E visible
25 Oct 5.5 06:13:24 10° N 06:18:38 81° W 06:23:50 10° S visible
25 Oct 7.1 19:10:14 10° SSW 19:15:03 37° W 19:19:53 10° NNW visible
